Simultaneous Nadir Overpasses (SNOs) Predictions

Prediction of SNOs between METOP-A and NOAA-19 Satellite Orbit:

Table of predicted SNOs for the next 14.0 days since TLE Epoch: 12/11/2015
Index Date (METOP-A) Time (METOP-A) Lat,Lon (METOP-A) SZA (METOP-A ) Date (NOAA-19) Time (NOAA-19) Lat,Lon (NOAA-19) SZA (NOAA-19 ) Distance(km) Time Diff (sec)
1 12/12/2015 09:36:29 75.73, 34.89 98.72 12/12/2015 09:35:17 75.74, 33.93 98.72 26.34 72
2 12/12/2015 10:27:14 -75.59,-158.23 81.43 12/12/2015 10:26:18 -75.58,-158.29 81.45 2.47 56
3 12/12/2015 11:17:54 75.58, 9.05 98.56 12/12/2015 11:17:16 75.59, 8.93 98.57 3.43 38
4 12/12/2015 12:08:37 -75.53, 176.23 81.49 12/12/2015 12:08:20 -75.56, 176.26 81.46 3.51 17
5 12/12/2015 12:59:16 75.56, -16.35 98.55 12/12/2015 12:59:17 75.53, -16.37 98.52 3.67 1
6 12/12/2015 13:49:59 -75.51, 150.83 81.50 12/12/2015 13:50:21 -75.50, 150.95 81.51 3.56 22
7 12/12/2015 14:40:39 75.49, -41.89 98.49 12/12/2015 14:41:19 75.51, -41.83 98.51 2.41 40
8 12/12/2015 15:31:21 -75.49, 125.44 81.51 12/12/2015 15:32:23 -75.48, 125.49 81.52 2.02 62
9 12/12/2015 16:22:06 75.24, -68.00 98.24 12/12/2015 16:23:16 75.26, -66.55 98.27 41.11 70
10 12/22/2015 23:51:13 -75.60, 0.81 81.05 12/22/2015 23:50:02 -75.59, 0.93 81.06 3.33 71
11 12/23/2015 00:41:52 75.63, 168.24 98.98 12/23/2015 00:40:59 75.62, 168.10 98.98 3.85 53
12 12/23/2015 01:32:35 -75.58, -24.59 81.07 12/23/2015 01:32:04 -75.58, -24.53 81.07 1.56 31
13 12/23/2015 02:23:15 75.56, 142.69 98.92 12/23/2015 02:23:00 75.56, 142.79 98.91 2.76 15
14 12/23/2015 03:13:57 -75.56, -49.98 81.09 12/23/2015 03:14:06 -75.56, -49.99 81.09 0.22 9
15 12/23/2015 04:04:37 75.54, 117.30 98.90 12/23/2015 04:05:02 75.55, 117.33 98.90 0.99 25
16 12/23/2015 04:55:19 -75.54, -75.38 81.11 12/23/2015 04:56:08 -75.55, -75.45 81.10 2.01 49
17 12/23/2015 05:45:59 75.53, 91.90 98.88 12/23/2015 05:47:04 75.53, 91.88 98.88 0.89 65
18 12/23/2015 06:36:53 -74.96,-102.46 81.68 12/23/2015 06:37:58 -74.98, -99.17 81.68 94.93 65




NCC Satellite Simultaneous Nadir Overpasses (SNOs) Prediction Service
